Вернуться в каталог

DELTA 1 DEB *

АктивенSSO
NORAD 42557·DEBRIS·🇺🇸 United States

Запущен Jul 23, 1972 с Vandenberg Space Force Base

Loading…

Ближайшие Пролёты (ближайшие 24 часа)

TLE

СвежийSource: Space-Track

Эпоха: Sep 12, 2026, 01:44 UTC

1 42557U 72058JQ  26255.07238510  .00000028  00000-0  28047-4 0  9996
2 42557  98.5944 334.3611 0012283  20.9138  97.8997 14.29423893667883

Отслеживайте DELTA 1 DEB * в реальном времени с AllMySat

Download on the App Store